| time (UTC) | temp F | wind direction | speed MPH | gust MPH | rain 1hr in | rain 24hr in | rain mn in | humidity % | barometer mb |
| 20260904181851 | 56 | 0 | 0.0 | 0.0 | 0.00 | 1.75 | 0.73 | 96 | 1011.2 |
| 20260904180312 | 56 | 0 | 0.0 | 0.0 | 0.01 | 1.75 | 0.73 | 96 | 1011.0 |
| 20260904175759 | 56 | 0 | 0.0 | 0.0 | 0.01 | 1.80 | 0.73 | 96 | 1010.9 |
| 20260904175246 | 56 | 0 | 0.0 | 0.0 | 0.01 | 1.80 | 0.73 | 96 | 1010.8 |
| 20260904174733 | 56 | 0 | 0.0 | 0.0 | 0.02 | 1.80 | 0.73 | 96 | 1010.8 |
| 20260904173707 | 56 | 0 | 0.0 | 0.0 | 0.03 | 1.80 | 0.73 | 96 | 1010.6 |
| 20260904173154 | 55 | 0 | 0.0 | 0.0 | 0.03 | 1.80 | 0.73 | 96 | 1010.5 |
| 20260904172641 | 56 | 0 | 0.0 | 0.0 | 0.05 | 1.80 | 0.73 | 96 | 1010.5 |
| 20260904172129 | 56 | 0 | 0.0 | 0.0 | 0.05 | 1.80 | 0.73 | 96 | 1010.4 |
| 20260904171102 | 55 | 0 | 0.0 | 0.0 | 0.06 | 1.80 | 0.73 | 96 | 1010.4 |
| 20260904170549 | 56 | 0 | 0.0 | 0.0 | 0.05 | 1.80 | 0.72 | 96 | 1010.5 |
| 20260904170036 | 55 | 0 | 0.0 | 0.0 | 0.05 | 1.80 | 0.72 | 96 | 1010.4 |
| 20260904165010 | 55 | 0 | 0.0 | 0.0 | 0.05 | 1.76 | 0.72 | 96 | 1010.3 |
| 20260904164457 | 55 | 0 | 0.0 | 0.0 | 0.04 | 1.76 | 0.71 | 96 | 1010.3 |
| 20260904163944 | 55 | 0 | 0.0 | 0.0 | 0.04 | 1.76 | 0.71 | 96 | 1010.2 |
| 20260904163431 | 54 | 0 | 0.0 | 0.0 | 0.03 | 1.76 | 0.71 | 96 | 1010.3 |
| 20260904162918 | 55 | 0 | 0.0 | 0.0 | 0.02 | 1.76 | 0.70 | 96 | 1010.2 |
| 20260904162405 | 55 | 0 | 0.0 | 0.0 | 0.02 | 1.76 | 0.70 | 96 | 1010.2 |
| 20260904161852 | 55 | 0 | 0.0 | 0.0 | 0.03 | 1.76 | 0.68 | 96 | 1010.2 |
| 20260904160314 | 54 | 0 | 0.0 | 0.0 | 0.04 | 1.76 | 0.67 | 96 | 1010.2 |
| 20260904155800 | 55 | 0 | 0.0 | 0.0 | 0.05 | 1.72 | 0.67 | 96 | 1010.2 |
| 20260904155247 | 55 | 0 | 0.0 | 0.0 | 0.05 | 1.72 | 0.67 | 96 | 1010.1 |
| 20260904154734 | 55 | 0 | 0.0 | 0.0 | 0.07 | 1.72 | 0.67 | 96 | 1010.1 |
| 20260904154221 | 54 | 0 | 0.0 | 0.0 | 0.07 | 1.72 | 0.67 | 96 | 1010.1 |
| 20260904153155 | 54 | 0 | 0.0 | 0.0 | 0.07 | 1.72 | 0.67 | 96 | 1009.9 |
| 20260904152129 | 54 | 0 | 0.0 | 0.0 | 0.06 | 1.72 | 0.66 | 96 | 1009.9 |
| 20260904151616 | 55 | 0 | 0.0 | 0.0 | 0.04 | 1.72 | 0.65 | 96 | 1009.9 |
| 20260904151103 | 54 | 0 | 0.0 | 0.0 | 0.04 | 1.72 | 0.64 | 96 | 1009.8 |
| 20260904150037 | 54 | 0 | 0.0 | 0.0 | 0.03 | 1.72 | 0.63 | 96 | 1009.7 |
| 20260904145524 | 54 | 0 | 0.0 | 0.0 | 0.03 | 1.69 | 0.63 | 96 | 1009.6 |
| 20260904145011 | 54 | 0 | 0.0 | 0.0 | 0.03 | 1.69 | 0.62 | 96 | 1009.5 |
| 20260904144458 | 54 | 0 | 0.0 | 0.0 | 0.02 | 1.69 | 0.61 | 96 | 1009.5 |
| 20260904143945 | 54 | 0 | 0.0 | 0.0 | 0.02 | 1.69 | 0.60 | 96 | 1009.4 |
| 20260904143432 | 54 | 0 | 0.0 | 0.0 | 0.02 | 1.69 | 0.60 | 96 | 1009.3 |
| 20260904142919 | 54 | 0 | 0.0 | 0.0 | 0.02 | 1.69 | 0.60 | 96 | 1009.2 |
| 20260904142406 | 54 | 0 | 0.0 | 0.0 | 0.02 | 1.69 | 0.60 | 96 | 1009.1 |
| 20260904141853 | 54 | 0 | 0.0 | 0.0 | 0.04 | 1.69 | 0.60 | 96 | 1009.0 |
| 20260904141341 | 54 | 0 | 0.0 | 0.0 | 0.04 | 1.69 | 0.60 | 96 | 1009.1 |
| 20260904140828 | 54 | 0 | 0.0 | 0.0 | 0.06 | 1.69 | 0.60 | 96 | 1008.9 |
| 20260904140314 | 54 | 0 | 0.0 | 0.0 | 0.06 | 1.69 | 0.60 | 96 | 1008.8 |
| 20260904135801 | 55 | 0 | 0.0 | 0.0 | 0.10 | 1.63 | 0.59 | 96 | 1008.7 |
| 20260904135248 | 54 | 0 | 0.0 | 0.0 | 0.10 | 1.63 | 0.59 | 96 | 1008.7 |
| 20260904134735 | 55 | 0 | 0.0 | 9.0 | 0.09 | 1.63 | 0.59 | 96 | 1008.7 |
| 20260904134222 | 55 | 0 | 0.0 | 9.0 | 0.09 | 1.63 | 0.58 | 96 | 1008.6 |
| 20260904133709 | 54 | 176 | 2.0 | 9.0 | 0.09 | 1.63 | 0.58 | 96 | 1008.5 |
| 20260904133156 | 54 | 0 | 0.0 | 7.0 | 0.09 | 1.63 | 0.58 | 96 | 1008.4 |
| 20260904132643 | 54 | 0 | 0.0 | 7.0 | 0.09 | 1.63 | 0.58 | 96 | 1008.3 |
| 20260904132130 | 54 | 142 | 0.0 | 7.0 | 0.09 | 1.63 | 0.58 | 96 | 1008.3 |
| 20260904131617 | 55 | 0 | 0.0 | 0.0 | 0.07 | 1.63 | 0.58 | 96 | 1008.2 |
| 20260904131104 | 55 | 0 | 0.0 | 9.0 | 0.07 | 1.63 | 0.56 | 96 | 1008.1 |
| 20260904130551 | 55 | 0 | 0.0 | 9.0 | 0.06 | 1.63 | 0.54 | 96 | 1008.0 |
| 20260904125525 | 54 | 0 | 0.0 | 6.0 | 0.02 | 1.58 | 0.52 | 96 | 1007.9 |
| 20260904125012 | 54 | 0 | 0.0 | 6.0 | 0.02 | 1.58 | 0.49 | 96 | 1007.9 |
| 20260904124459 | 54 | 0 | 0.0 | 6.0 | 0.04 | 1.58 | 0.49 | 96 | 1007.9 |
| 20260904123946 | 54 | 0 | 0.0 | 0.0 | 0.04 | 1.58 | 0.49 | 96 | 1007.8 |
| 20260904123433 | 54 | 0 | 0.0 | 12.0 | 0.18 | 1.58 | 0.49 | 96 | 1007.9 |
| 20260904122920 | 55 | 0 | 0.0 | 12.0 | 0.22 | 1.58 | 0.49 | 96 | 1007.9 |
| 20260904122407 | 54 | 133 | 0.0 | 12.0 | 0.22 | 1.58 | 0.49 | 96 | 1007.8 |
| 20260904121854 | 54 | 0 | 0.0 | 0.0 | 0.25 | 1.58 | 0.49 | 96 | 1007.7 |
| 20260904121341 | 54 | 0 | 0.0 | 0.0 | 0.25 | 1.58 | 0.49 | 96 | 1007.8 |
| 20260904120830 | 54 | 0 | 0.0 | 3.0 | 0.26 | 1.58 | 0.49 | 96 | 1007.6 |
| 20260904120315 | 53 | 0 | 0.0 | 3.0 | 0.26 | 1.58 | 0.49 | 96 | 1007.6 |
| 20260904115802 | 54 | 0 | 0.0 | 3.0 | 0.29 | 1.57 | 0.48 | 96 | 1007.5 |
| 20260904115249 | 54 | 0 | 0.0 | 0.0 | 0.29 | 1.57 | 0.47 | 96 | 1007.3 |
| 20260904114736 | 54 | 0 | 0.0 | 3.0 | 0.33 | 1.57 | 0.47 | 96 | 1007.2 |
| 20260904114223 | 54 | 114 | 0.0 | 3.0 | 0.33 | 1.57 | 0.46 | 96 | 1007.1 |
| 20260904113710 | 54 | 0 | 0.0 | 3.0 | 0.21 | 1.57 | 0.43 | 96 | 1006.9 |
| 20260904113157 | 53 | 85 | 0.0 | 3.0 | 0.21 | 1.57 | 0.34 | 96 | 1007.1 |
| 20260904112644 | 54 | 0 | 0.0 | 0.0 | 0.18 | 1.57 | 0.29 | 96 | 1007.1 |
| 20260904112131 | 54 | 0 | 0.0 | 0.0 | 0.18 | 1.57 | 0.27 | 96 | 1007.1 |
| 20260904111618 | 53 | 0 | 0.0 | 0.0 | 0.15 | 1.57 | 0.26 | 96 | 1007.0 |
| 20260904105526 | 54 | 0 | 0.0 | 0.0 | 0.10 | 1.49 | 0.20 | 96 | 1006.7 |
| 20260904105013 | 54 | 0 | 0.0 | 0.0 | 0.10 | 1.49 | 0.18 | 96 | 1006.8 |
| 20260904104500 | 53 | 0 | 0.0 | 0.0 | 0.07 | 1.49 | 0.14 | 96 | 1007.1 |
| 20260904103947 | 53 | 0 | 0.0 | 0.0 | 0.07 | 1.49 | 0.12 | 96 | 1007.0 |
| 20260904103434 | 54 | 0 | 0.0 | 0.0 | 0.07 | 1.49 | 0.11 | 96 | 1007.0 |
| 20260904102921 | 54 | 0 | 0.0 | 0.0 | 0.07 | 1.49 | 0.10 | 95 | 1007.0 |
| 20260904102408 | 53 | 0 | 0.0 | 0.0 | 0.07 | 1.49 | 0.09 | 96 | 1006.9 |
| 20260904101855 | 53 | 0 | 0.0 | 0.0 | 0.07 | 1.49 | 0.09 | 96 | 1006.9 |
| 20260904101342 | 53 | 0 | 0.0 | 0.0 | 0.07 | 1.49 | 0.09 | 95 | 1006.7 |
| 20260904100829 | 54 | 0 | 0.0 | 0.0 | 0.07 | 1.49 | 0.09 | 95 | 1006.9 |
| 20260904100316 | 53 | 0 | 0.0 | 0.0 | 0.07 | 1.49 | 0.09 | 95 | 1006.9 |
| 20260904095803 | 53 | 0 | 0.0 | 0.0 | 0.06 | 1.43 | 0.09 | 95 | 1006.9 |
| 20260904095250 | 54 | 0 | 0.0 | 0.0 | 0.06 | 1.43 | 0.08 | 95 | 1007.0 |
| 20260904094737 | 54 | 0 | 0.0 | 0.0 | 0.03 | 1.43 | 0.07 | 96 | 1007.0 |
| 20260904094224 | 53 | 0 | 0.0 | 0.0 | 0.03 | 1.43 | 0.05 | 95 | 1007.1 |
| 20260904093711 | 53 | 0 | 0.0 | 0.0 | 0.03 | 1.43 | 0.05 | 95 | 1007.2 |
| 20260904093158 | 53 | 0 | 0.0 | 0.0 | 0.03 | 1.43 | 0.04 | 95 | 1007.1 |
| 20260904092132 | 53 | 0 | 0.0 | 0.0 | 0.02 | 1.43 | 0.02 | 95 | 1007.2 |
| 20260904091619 | 53 | 0 | 0.0 | 0.0 | 0.02 | 1.43 | 0.02 | 95 | 1007.2 |
| 20260904091106 | 53 | 0 | 0.0 | 0.0 | 0.02 | 1.43 | 0.02 | 95 | 1007.2 |
| 20260904090553 | 53 | 0 | 0.0 | 0.0 | 0.02 | 1.43 | 0.02 | 95 | 1007.2 |
| 20260904090040 | 54 | 0 | 0.0 | 0.0 | 0.02 | 1.43 | 0.02 | 95 | 1007.3 |
| 20260904085527 | 54 | 0 | 0.0 | 0.0 | 0.02 | 1.41 | 0.02 | 95 | 1007.3 |
| 20260904085014 | 53 | 0 | 0.0 | 0.0 | 0.02 | 1.41 | 0.02 | 95 | 1007.3 |
| 20260904084501 | 53 | 0 | 0.0 | 0.0 | 0.02 | 1.41 | 0.02 | 95 | 1007.3 |
| 20260904083948 | 54 | 0 | 0.0 | 0.0 | 0.02 | 1.41 | 0.02 | 95 | 1007.2 |
| 20260904083435 | 53 | 0 | 0.0 | 0.0 | 0.00 | 1.41 | 0.02 | 95 | 1007.2 |
| 20260904082922 | 53 | 0 | 0.0 | 0.0 | 0.01 | 1.41 | 0.00 | 95 | 1007.2 |
| 20260904082409 | 53 | 0 | 0.0 | 0.0 | 0.01 | 1.41 | 0.00 | 95 | 1007.2 |
| 20260904081856 | 53 | 0 | 0.0 | 0.0 | 0.02 | 1.41 | 0.00 | 95 | 1007.2 |
| 20260904081343 | 53 | 0 | 0.0 | 0.0 | 0.02 | 1.41 | 0.00 | 95 | 1007.1 |
| 20260904080830 | 53 | 0 | 0.0 | 0.0 | 0.02 | 1.41 | 0.00 | 95 | 1007.0 |
| 20260904080317 | 53 | 0 | 0.0 | 0.0 | 0.02 | 1.41 | 0.00 | 95 | 1006.9 |
| 20260904075804 | 53 | 0 | 0.0 | 0.0 | 0.02 | 1.41 | 0.00 | 95 | 1007.0 |
| 20260904075251 | 54 | 0 | 0.0 | 0.0 | 0.02 | 1.41 | 1.41 | 95 | 1007.0 |
| 20260904074738 | 54 | 0 | 0.0 | 0.0 | 0.03 | 1.41 | 1.41 | 95 | 1007.0 |
| 20260904074225 | 54 | 0 | 0.0 | 0.0 | 0.03 | 1.41 | 1.41 | 95 | 1007.0 |
| 20260904073712 | 54 | 0 | 0.0 | 0.0 | 0.03 | 1.41 | 1.41 | 95 | 1007.0 |
| 20260904073158 | 54 | 0 | 0.0 | 0.0 | 0.03 | 1.41 | 1.41 | 95 | 1007.0 |
| 20260904072646 | 53 | 0 | 0.0 | 0.0 | 0.03 | 1.41 | 1.41 | 95 | 1007.0 |
| 20260904072133 | 54 | 0 | 0.0 | 0.0 | 0.03 | 1.40 | 1.40 | 95 | 1007.0 |
| 20260904071620 | 54 | 0 | 0.0 | 0.0 | 0.07 | 1.40 | 1.40 | 95 | 1007.0 |
| 20260904071106 | 54 | 0 | 0.0 | 0.0 | 0.07 | 1.39 | 1.39 | 95 | 1006.9 |
| 20260904070553 | 54 | 0 | 0.0 | 0.0 | 0.21 | 1.39 | 1.39 | 95 | 1006.8 |
| 20260904070040 | 54 | 0 | 0.0 | 0.0 | 0.21 | 1.39 | 1.39 | 95 | 1006.8 |
| 20260904065528 | 54 | 0 | 0.0 | 0.0 | 0.27 | 1.39 | 1.39 | 95 | 1006.8 |
| 20260904065014 | 54 | 0 | 0.0 | 0.0 | 0.27 | 1.39 | 1.39 | 95 | 1006.7 |
| 20260904064502 | 54 | 0 | 0.0 | 0.0 | 0.27 | 1.38 | 1.38 | 94 | 1006.6 |
| 20260904063948 | 54 | 0 | 0.0 | 6.0 | 0.27 | 1.38 | 1.38 | 94 | 1006.6 |
| 20260904063435 | 54 | 0 | 0.0 | 6.0 | 0.29 | 1.38 | 1.38 | 94 | 1006.7 |
| 20260904062922 | 54 | 100 | 2.0 | 6.0 | 0.28 | 1.38 | 1.38 | 94 | 1006.6 |
| 20260904062409 | 54 | 0 | 0.0 | 0.0 | 0.28 | 1.37 | 1.37 | 94 | 1006.7 |
| 20260904062102 | 54 | 0 | 0.0 | 0.0 | 0.24 | 1.36 | 1.37 | 94 | 1006.5 |
| 20260904061856 | 54 | 0 | 0.0 | 0.0 | 0.24 | 1.36 | 1.37 | 94 | 1006.5 |
| 20260904061343 | 54 | 0 | 0.0 | 0.0 | 0.24 | 1.35 | 1.35 | 94 | 1006.6 |
| 20260904060830 | 54 | 0 | 0.0 | 0.0 | 0.13 | 1.28 | 1.30 | 94 | 1006.7 |
| 20260904060317 | 54 | 0 | 0.0 | 0.0 | 0.13 | 1.22 | 1.23 | 94 | 1006.7 |
| 20260904055804 | 54 | 0 | 0.0 | 0.0 | 0.11 | 1.16 | 1.17 | 94 | 1006.7 |
| 20260904055251 | 54 | 0 | 0.0 | 0.0 | 0.11 | 1.13 | 1.13 | 94 | 1006.6 |
| 20260904054738 | 54 | 0 | 0.0 | 6.0 | 0.11 | 1.12 | 1.12 | 94 | 1006.4 |
| 20260904054226 | 54 | 0 | 0.0 | 6.0 | 0.11 | 1.11 | 1.11 | 94 | 1006.5 |
| 20260904053712 | 54 | 142 | 0.0 | 6.0 | 0.10 | 1.10 | 1.11 | 94 | 1006.6 |
| 20260904052133 | 54 | 0 | 0.0 | 0.0 | 0.10 | 1.09 | 1.09 | 94 | 1006.8 |
| 20260904051107 | 53 | 0 | 0.0 | 0.0 | 0.10 | 1.08 | 1.08 | 94 | 1007.0 |
| 20260904050554 | 54 | 0 | 0.0 | 0.0 | 0.09 | 1.07 | 1.07 | 94 | 1007.2 |
| 20260904045528 | 54 | 0 | 0.0 | 0.0 | 0.07 | 1.04 | 1.04 | 94 | 1007.2 |
| 20260904045016 | 53 | 0 | 0.0 | 0.0 | 0.07 | 1.01 | 1.02 | 94 | 1007.3 |
| 20260904043949 | 54 | 0 | 0.0 | 0.0 | 0.09 | 1.00 | 1.00 | 94 | 1007.1 |
| 20260904043436 | 54 | 0 | 0.0 | 0.0 | 0.10 | 0.99 | 0.99 | 94 | 1007.1 |
| 20260904042923 | 54 | 0 | 0.0 | 0.0 | 0.12 | 0.99 | 0.99 | 93 | 1007.1 |
| 20260904042410 | 54 | 0 | 0.0 | 4.0 | 0.12 | 0.99 | 0.99 | 93 | 1007.2 |
| 20260904041858 | 54 | 0 | 0.0 | 4.0 | 0.12 | 0.99 | 0.99 | 93 | 1007.2 |
| 20260904041344 | 54 | 92 | 0.0 | 4.0 | 0.12 | 0.99 | 0.99 | 93 | 1007.2 |
| 20260904040831 | 54 | 0 | 0.0 | 0.0 | 0.11 | 0.98 | 0.98 | 93 | 1007.2 |
| 20260904040318 | 54 | 0 | 0.0 | 0.0 | 0.11 | 0.97 | 0.97 | 93 | 1007.3 |
| 20260904035805 | 55 | 0 | 0.0 | 4.0 | 0.09 | 0.95 | 0.95 | 93 | 1007.4 |
| 20260904035408 | 54 | 232 | 0.0 | 4.0 | 0.09 | 0.95 | 0.95 | 93 | 1007.5 |
| 20260904035252 | 54 | 232 | 0.0 | 4.0 | 0.09 | 0.95 | 0.95 | 93 | 1007.5 |
| 20260904034739 | 55 | 0 | 0.0 | 4.0 | 0.07 | 0.94 | 0.94 | 93 | 1007.6 |
| 20260904034226 | 54 | 232 | 0.0 | 8.0 | 0.07 | 0.91 | 0.92 | 93 | 1007.5 |
| 20260904033713 | 54 | 184 | 0.0 | 8.0 | 0.07 | 0.90 | 0.90 | 93 | 1007.4 |
| 20260904033200 | 55 | 175 | 0.0 | 8.0 | 0.07 | 0.89 | 0.89 | 93 | 1007.4 |
| 20260904032647 | 55 | 233 | 1.0 | 8.0 | 0.06 | 0.88 | 0.88 | 93 | 1007.4 |
| 20260904032135 | 55 | 201 | 3.0 | 13.0 | 0.06 | 0.87 | 0.87 | 93 | 1007.4 |
| 20260904031622 | 55 | 242 | 0.0 | 13.0 | 0.05 | 0.86 | 0.87 | 93 | 1007.5 |
| 20260904031108 | 55 | 141 | 0.0 | 13.0 | 0.05 | 0.86 | 0.86 | 93 | 1007.4 |
| 20260904030555 | 55 | 236 | 1.0 | 14.0 | 0.06 | 0.86 | 0.86 | 93 | 1007.3 |
| 20260904025529 | 55 | 0 | 2.0 | 14.0 | 0.06 | 0.85 | 0.85 | 92 | 1007.2 |
| 20260904025016 | 55 | 191 | 4.0 | 14.0 | 0.06 | 0.85 | 0.85 | 92 | 1007.4 |
| 20260904024503 | 55 | 247 | 3.0 | 9.0 | 0.05 | 0.85 | 0.85 | 92 | 1007.4 |
| 20260904023950 | 55 | 0 | 0.0 | 0.0 | 0.05 | 0.84 | 0.84 | 92 | 1007.5 |
| 20260904023438 | 55 | 142 | 5.0 | 16.0 | 0.05 | 0.82 | 0.82 | 92 | 1007.5 |
| 20260904022924 | 56 | 302 | 4.0 | 16.0 | 0.06 | 0.81 | 0.81 | 92 | 1007.5 |
| 20260904022411 | 56 | 214 | 2.0 | 16.0 | 0.06 | 0.81 | 0.81 | 92 | 1007.4 |
| 20260904021858 | 56 | 254 | 0.0 | 13.0 | 0.06 | 0.81 | 0.81 | 92 | 1007.5 |
| 20260904021345 | 56 | 217 | 3.0 | 13.0 | 0.06 | 0.81 | 0.81 | 92 | 1007.6 |
| 20260904020832 | 56 | 211 | 5.0 | 13.0 | 0.05 | 0.81 | 0.81 | 92 | 1007.7 |
| 20260904020319 | 56 | 183 | 0.0 | 11.0 | 0.05 | 0.79 | 0.79 | 92 | 1007.6 |
| 20260904015806 | 56 | 159 | 3.0 | 10.0 | 0.07 | 0.79 | 0.79 | 92 | 1007.5 |
| 20260904014740 | 56 | 137 | 1.0 | 11.0 | 0.07 | 0.79 | 0.79 | 92 | 1007.5 |
| 20260904013715 | 55 | 189 | 5.0 | 11.0 | 0.06 | 0.79 | 0.79 | 92 | 1007.6 |
| 20260904013201 | 56 | 197 | 0.0 | 8.0 | 0.06 | 0.77 | 0.77 | 91 | 1007.6 |
| 20260904012648 | 55 | 140 | 2.0 | 16.0 | 0.07 | 0.76 | 0.76 | 91 | 1007.6 |
| 20260904012135 | 56 | 173 | 4.0 | 16.0 | 0.07 | 0.75 | 0.75 | 91 | 1007.6 |
| 20260904011622 | 56 | 173 | 5.0 | 16.0 | 0.07 | 0.75 | 0.75 | 91 | 1007.6 |
| 20260904011109 | 56 | 116 | 2.0 | 14.0 | 0.07 | 0.75 | 0.75 | 91 | 1007.6 |
| 20260904010556 | 55 | 235 | 1.0 | 12.0 | 0.06 | 0.75 | 0.75 | 91 | 1007.6 |
| 20260904010043 | 55 | 137 | 0.0 | 13.0 | 0.06 | 0.74 | 0.75 | 91 | 1007.7 |
| 20260904005530 | 56 | 158 | 0.0 | 13.0 | 0.04 | 0.73 | 0.73 | 91 | 1007.7 |
| 20260904005017 | 56 | 5 | 2.0 | 13.0 | 0.04 | 0.72 | 0.72 | 91 | 1007.6 |
| 20260904004504 | 57 | 165 | 3.0 | 10.0 | 0.04 | 0.72 | 0.72 | 91 | 1007.6 |
| 20260904003951 | 56 | 239 | 0.0 | 7.0 | 0.04 | 0.72 | 0.72 | 91 | 1007.7 |
| 20260904002925 | 57 | 232 | 4.0 | 11.0 | 0.01 | 0.71 | 0.71 | 90 | 1007.7 |
| 20260904001859 | 56 | 182 | 5.0 | 9.0 | 0.01 | 0.68 | 0.68 | 91 | 1007.7 |
| 20260904001346 | 56 | 170 | 6.0 | 19.0 | 0.01 | 0.68 | 0.68 | 91 | 1007.7 |
| 20260904000833 | 57 | 236 | 3.0 | 19.0 | 0.01 | 0.68 | 0.68 | 91 | 1007.8 |
| 20260904000320 | 58 | 180 | 3.0 | 19.0 | 0.01 | 0.68 | 0.68 | 91 | 1007.9 |
| 20260903235807 | 57 | 200 | 3.0 | 9.0 | 0.01 | 0.68 | 0.68 | 91 | 1007.8 |
| 20260903235254 | 57 | 242 | 1.0 | 13.0 | 0.01 | 0.68 | 0.68 | 91 | 1007.8 |
| 20260903234741 | 57 | 144 | 6.0 | 13.0 | 0.01 | 0.68 | 0.68 | 91 | 1007.9 |
| 20260903234228 | 57 | 184 | 3.0 | 13.0 | 0.01 | 0.68 | 0.68 | 91 | 1007.9 |
| 20260903233715 | 56 | 221 | 1.0 | 18.0 | 0.01 | 0.68 | 0.68 | 91 | 1007.9 |
| 20260903233202 | 56 | 204 | 4.0 | 18.0 | 0.01 | 0.68 | 0.68 | 91 | 1008.0 |
| 20260903232649 | 57 | 228 | 1.0 | 18.0 | 0.00 | 0.68 | 0.68 | 91 | 1008.0 |
| 20260903232136 | 57 | 124 | 5.0 | 15.0 | 0.00 | 0.68 | 0.68 | 91 | 1008.1 |
| 20260903231623 | 57 | 89 | 4.0 | 11.0 | 0.00 | 0.67 | 0.67 | 91 | 1008.2 |
| 20260903231110 | 57 | 161 | 6.0 | 11.0 | 0.00 | 0.67 | 0.67 | 91 | 1008.2 |
| 20260903230557 | 58 | 214 | 0.0 | 17.0 | 0.00 | 0.67 | 0.67 | 91 | 1008.2 |
| 20260903230044 | 58 | 238 | 4.0 | 17.0 | 0.00 | 0.67 | 0.67 | 91 | 1008.3 |
| 20260903225531 | 58 | 243 | 3.0 | 17.0 | 0.00 | 0.70 | 0.67 | 91 | 1008.3 |
| 20260903225018 | 58 | 253 | 4.0 | 13.0 | 0.00 | 0.70 | 0.67 | 91 | 1008.3 |
| 20260903224505 | 58 | 246 | 8.0 | 13.0 | 0.00 | 0.70 | 0.67 | 91 | 1008.4 |
| 20260903223952 | 58 | 257 | 5.0 | 16.0 | 0.00 | 0.70 | 0.67 | 92 | 1008.3 |
| 20260903222926 | 58 | 270 | 2.0 | 16.0 | 0.00 | 0.70 | 0.67 | 92 | 1008.3 |
| 20260903222413 | 57 | 158 | 3.0 | 12.0 | 0.00 | 0.70 | 0.67 | 92 | 1008.2 |
| 20260903221347 | 58 | 246 | 6.0 | 20.0 | 0.00 | 0.70 | 0.67 | 92 | 1008.4 |
| 20260903220321 | 57 | 228 | 7.0 | 12.0 | 0.00 | 0.70 | 0.67 | 92 | 1008.3 |
| 20260903215808 | 58 | 217 | 6.0 | 12.0 | 0.00 | 0.74 | 0.67 | 92 | 1008.3 |
| 20260903215255 | 58 | 127 | 3.0 | 11.0 | 0.00 | 0.74 | 0.67 | 92 | 1008.4 |
| 20260903214742 | 58 | 194 | 4.0 | 11.0 | 0.00 | 0.74 | 0.67 | 92 | 1008.4 |
| 20260903213716 | 58 | 170 | 0.0 | 22.0 | 0.01 | 0.74 | 0.67 | 93 | 1008.5 |
| 20260903213203 | 58 | 196 | 5.0 | 22.0 | 0.01 | 0.74 | 0.67 | 93 | 1008.4 |
| 20260903212650 | 58 | 137 | 8.0 | 22.0 | 0.02 | 0.74 | 0.67 | 93 | 1008.5 |
| 20260903212137 | 58 | 235 | 5.0 | 16.0 | 0.02 | 0.74 | 0.67 | 93 | 1008.5 |
| 20260903211624 | 58 | 240 | 0.0 | 12.0 | 0.06 | 0.74 | 0.67 | 93 | 1008.5 |
| 20260903205532 | 57 | 245 | 3.0 | 15.0 | 0.06 | 0.77 | 0.67 | 94 | 1008.4 |
| 20260903204506 | 56 | 296 | 2.0 | 11.0 | 0.06 | 0.77 | 0.67 | 93 | 1008.5 |
| 20260903203953 | 56 | 246 | 4.0 | 11.0 | 0.06 | 0.77 | 0.67 | 93 | 1008.5 |
| 20260903203440 | 56 | 131 | 3.0 | 13.0 | 0.05 | 0.77 | 0.66 | 94 | 1008.6 |
| 20260903202927 | 56 | 271 | 0.0 | 13.0 | 0.04 | 0.77 | 0.66 | 93 | 1008.8 |
| 20260903202414 | 57 | 194 | 2.0 | 13.0 | 0.04 | 0.77 | 0.65 | 93 | 1008.7 |
| 20260903201348 | 57 | 277 | 5.0 | 12.0 | 0.00 | 0.77 | 0.62 | 93 | 1008.8 |
| 20260903200322 | 58 | 130 | 3.0 | 16.0 | 0.02 | 0.77 | 0.61 | 94 | 1008.6 |
| 20260903194743 | 57 | 148 | 0.0 | 11.0 | 0.11 | 0.84 | 0.61 | 94 | 1008.9 |
| 20260903193717 | 55 | 240 | 0.0 | 9.0 | 0.16 | 0.84 | 0.61 | 94 | 1008.9 |
| 20260903192651 | 54 | 204 | 0.0 | 9.0 | 0.17 | 0.84 | 0.61 | 94 | 1008.9 |
| 20260903192138 | 54 | 222 | 0.0 | 7.0 | 0.17 | 0.84 | 0.61 | 94 | 1009.0 |
| 20260903190046 | 53 | 102 | 3.0 | 15.0 | 0.20 | 0.84 | 0.59 | 93 | 1009.5 |
| 20260903185021 | 53 | 154 | 1.0 | 5.0 | 0.16 | 0.74 | 0.54 | 93 | 1009.4 |
| 20260903183954 | 53 | 0 | 0.0 | 0.0 | 0.12 | 0.74 | 0.50 | 93 | 1009.4 |
| 20260903183441 | 53 | 0 | 0.0 | 0.0 | 0.08 | 0.74 | 0.49 | 93 | 1009.4 |
| 20260903182927 | 53 | 0 | 0.0 | 0.0 | 0.09 | 0.74 | 0.45 | 93 | 1009.4 |
| 20260903182415 | 53 | 0 | 0.0 | 10.0 | 0.09 | 0.74 | 0.44 | 93 | 1009.5 |
| 20260903181901 | 53 | 0 | 0.0 | 10.0 | 0.07 | 0.74 | 0.43 | 93 | 1009.4 |